Weather History for Vineland (AU8) ON, Ontario

Change the Weather History Date:

Monday, September 16, 2013

  Actual Average Record
Temperature  
Mean Temperature 54 °F -  
Max Temperature 57 °F - - ()
Min Temperature 52 °F - - ()
Degree Days  
Heating Degree Days 10    
Growing Degree Days 4 (Base 50)    
Moisture  
Dew Point 46 °F    
Average Humidity 74    
Maximum Humidity 88    
Minimum Humidity 52    
Precipitation  
Precipitation 0.02 in - - ()
Sea Level Pressure  
Sea Level Pressure 30.20 in    
Wind  
Wind Speed 6 mph ()    
Max Wind Speed 14 mph    
Max Gust Speed 22 mph    
T = Trace of Precipitation, MM = Missing Value Source: Averaged Metar Reports

Daily Weather History Graph

Daily Weather History Graph

Search for Another Location

Airport:

Trip Planner

Search our weather history database for the weather conditions in past years. The results will help you decide how hot, cold, wet, or windy it might be!

Date:

Astronomy

Sep. 16, 2013 Rise Set
Actual Time 6:58 AM EDT 7:25 PM EDT
Civil Twilight 6:29 AM EDT 7:53 PM EDT
Nautical Twilight 5:56 AM EDT 8:27 PM EDT
Astronomical Twilight 5:21 AM EDT 9:02 PM EDT
Moon 5:36 PM EDT (9/16) 3:38 AM EDT (9/16)
Length of Visible Light 13h 23m
Length of Day
12h 26m
Waxing Gibbous, 90% of the Moon is Illuminated
Sep 16
Waxing Gibbous
Sep 19
Full
Sep 26
Last Quarter
Oct 4
New
Oct 11
First Quarter

Hourly Weather History & Observations

Time (EDT) Temp. Dew Point Humidity Pressure Visibility Wind Dir Wind Speed Gust Speed Precip Events Conditions
12:00 AM 54.5 °F 50.4 °F 86% 30.06 in - South 3.5 mph - N/A   Unknown
1:00 AM 54.1 °F 50.2 °F 86% 30.05 in - SSW 3.5 mph - N/A   Unknown
2:00 AM 54 °F 49 °F 79% 30.05 in - SSW 4.6 mph - -  
2:00 AM 54.3 °F 49.5 °F 84% 30.05 in - SSW 4.6 mph - N/A   Unknown
3:00 AM 54.5 °F 50.0 °F 85% 30.05 in - SSW 3.5 mph - N/A   Unknown
4:00 AM 53.8 °F 49.1 °F 84% 30.05 in - WSW 4.6 mph - N/A   Unknown
5:00 AM 53.4 °F 49.6 °F 87% 30.06 in - West 5.8 mph - N/A   Unknown
6:00 AM 54.3 °F 50.7 °F 88% 30.07 in - WSW 3.5 mph - N/A   Unknown
7:00 AM 54.3 °F 50.9 °F 88% 30.10 in - WSW 4.6 mph - N/A   Unknown
8:00 AM 58 °F 53 °F 78% 30.13 in - North 11.5 mph - -  
8:00 AM 57.7 °F 53.1 °F 84% 30.13 in - North 11.5 mph - N/A   Unknown
9:00 AM 54.7 °F 51.3 °F 88% 30.17 in - NNE 13.8 mph 21.9 mph 0.02 in   Unknown
10:00 AM 53.1 °F 47.5 °F 81% 30.21 in - NE 13.8 mph 19.6 mph N/A   Unknown
11:00 AM 52.9 °F 47.3 °F 81% 30.23 in - NE 12.7 mph 19.6 mph N/A   Unknown
12:00 PM 53.4 °F 47.1 °F 79% 30.25 in - NE 11.5 mph 18.4 mph N/A   Unknown
1:00 PM 53.8 °F 45.9 °F 75% 30.26 in - NE 11.5 mph - N/A   Unknown
2:00 PM 53 °F 44 °F 64% 30.27 in - NNE 9.2 mph - -  
2:00 PM 53.1 °F 44.4 °F 72% 30.27 in - NNE 9.2 mph - N/A   Unknown
3:00 PM 54.5 °F 43.9 °F 67% 30.28 in - NNE 6.9 mph - N/A   Unknown
4:00 PM 54.5 °F 41.9 °F 62% 30.28 in - NE 6.9 mph - N/A   Unknown
5:00 PM 54.5 °F 41.9 °F 62% 30.28 in - East 4.6 mph - N/A   Unknown
6:00 PM 54.9 °F 42.1 °F 62% 30.29 in - ESE 4.6 mph - N/A   Unknown
7:00 PM 54.3 °F 41.4 °F 62% 30.30 in - ENE 3.5 mph - N/A   Unknown
8:00 PM 53 °F 41 °F 52% 30.32 in - NE 4.6 mph - -  
8:00 PM 52.9 °F 40.6 °F 63% 30.32 in - NE 4.6 mph - N/A   Unknown
9:00 PM 54.5 °F 39.6 °F 57% 30.33 in - NNE 8.1 mph - N/A   Unknown
10:00 PM 54.5 °F 41.0 °F 60% 30.34 in - NNE 9.2 mph - N/A   Unknown
11:00 PM 53.6 °F 43.5 °F 69% 30.35 in - NNE 8.1 mph - N/A   Unknown